Theta_e
329 332 335 339 343 347 350 350 348 354 348 346 344 343 344 344 344 346 352 353 350 349 356 347 351 354 351 350 357 350 351 343 346 343 337 337 340 343 340 338 337 337 335
325 329 333 335 338 342 346 351 350 351 351 345 347 346 345 345 345 345 350 351 349 350 352 353 350 355 347 357 356 356 343 343 343 339 334 326 328 333 338 338 337 336 335
320 324 330 332 336 340 345 347 348 350 351 352 349 348 347 346 343 345 347 350 352 352 354 355 353 357 351 346 353 352 352 339 344 347 336 327 325 328 330 334 333 334 330
319 322 327 331 332 332 343 340 346 345 347 350 345 345 341 340 342 342 344 345 346 347 349 353 353 356 348 349 350 351 349 348 339 341 342 344 338 326 321 328 331 330 327
319 320 324 326 326 326 328 332 335 332 326 341 344 341 340 345 338 340 344 346 345 344 343 346 349 350 347 350 351 349 349 346 343 337 338 341 336 340 326 320 321 325 325
319 319 322 326 322 323 323 323 325 325 327 323 323 328 337 337 332 332 333 340 337 341 343 342 343 338 337 340 338 342 346 345 344 342 339 336 332 330 328 324 321 321 323
318 317 319 321 323 322 320 320 319 316 317 318 319 320 321 326 337 337 336 338 337 334 335 331 327 323 320 320 326 331 337 339 336 342 337 337 335 335 332 325 322 318 320
316 317 316 317 317 318 321 324 323 319 318 316 315 317 318 320 319 318 317 321 316 315 318 318 319 317 318 316 319 319 322 323 329 333 335 333 335 334 330 329 320 316 315
315 316 315 316 317 318 319 320 320 320 320 318 317 317 315 316 316 314 313 309 310 309 308 309 308 309 311 309 310 311 311 316 321 322 324 327 330 325 326 329 324 316 309
313 317 316 315 318 319 320 319 319 317 317 317 317 316 316 315 313 312 311 309 309 308 307 307 306 307 306 307 307 306 309 306 309 310 313 316 322 322 322 322 322 320 315
311 314 316 317 317 318 318 317 318 316 316 316 316 316 314 315 313 311 310 308 307 308 306 307 305 304 305 306 304 305 306 305 305 307 306 307 313 317 321 318 319 318 320
310 313 315 316 316 315 318 316 318 317 316 313 310 309 310 311 310 310 308 308 307 307 305 305 304 304 304 304 304 304 303 302 303 304 306 306 309 310 313 314 314 316 320
310 312 314 316 315 317 317 317 316 315 315 313 310 307 306 306 306 306 307 307 306 306 306 305 304 303 303 303 304 303 302 301 301 302 302 304 307 308 310 309 313 314 313
311 311 312 314 315 314 314 313 316 316 316 314 311 311 307 306 305 306 306 306 306 305 305 305 304 303 304 304 304 303 301 301 301 302 302 304 304 305 306 308 311 313 314
309 311 311 313 314 312 314 313 314 315 315 312 312 311 311 309 307 305 306 305 305 305 305 303 303 303 302 302 302 302 301 301 301 303 304 306 307 309 310 311 311 312 313
308 309 311 311 313 311 312 311 312 313 312 308 307 309 307 308 308 309 306 305 305 306 306 304 303 303 302 302 302 302 302 302 303 303 305 307 307 308 307 311 311 311 312
308 309 310 312 314 312 312 311 311 312 310 305 304 303 304 303 303 304 305 305 306 308 307 306 305 305 305 302 303 304 306 304 305 306 307 306 307 309 308 307 307 307 308
310 310 311 313 315 313 311 312 311 309 308 304 304 304 304 302 302 302 302 303 306 309 308 308 307 307 305 302 302 304 306 307 306 307 308 307 308 309 310 308 308 308 309
311 312 314 315 315 313 312 311 310 308 307 305 304 305 305 303 305 302 302 303 304 305 307 307 306 307 305 302 301 302 307 306 305 306 309 309 309 307 303 309 310 311 312
312 312 314 314 313 311 312 309 307 306 304 305 304 306 306 304 306 302 302 302 303 302 303 303 305 305 306 300 299 301 306 306 305 307 308 306 308 302 301 307 309 309 311
313 313 314 313 312 312 311 309 309 306 306 307 306 308 308 306 308 305 304 303 304 304 304 303 305 305 306 305 298 299 304 304 303 304 306 308 303 300 299 300 309 310 311
312 313 312 313 314 313 312 310 308 312 310 309 308 307 308 307 307 309 309 308 308 307 307 307 306 306 309 303 299 297 298 303 307 309 310 313 301 299 298 300 302 301 302
313 313 312 312 313 313 312 309 312 311 309 307 310 310 308 307 309 309 309 307 309 306 305 304 304 307 306 309 300 298 297 298 302 308 308 300 299 299 299 298 300 298 307
313 313 312 311 312 311 312 313 312 312 312 310 311 310 310 309 310 309 312 312 311 310 309 308 308 309 310 312 314 306 305 300 304 305 308 308 306 305 305 305 303 306 307
314 313 312 311 312 313 311 312 312 313 312 311 312 312 312 311 310 311 309 309 312 311 308 311 310 311 312 312 309 309 310 311 308 310 312 309 307 305 305 306 307 308 308
314 313 313 312 312 313 313 312 312 312 312 311 311 310 311 311 310 309 309 301 303 301 300 302 308 311 304 300 300 297 299 298 297 308 307 306 306 304 304 304 305 306 305
Wind_Speed
6 5 9 10 9 7 9 13 17 14 11 11 13 12 12 12 12 11 13 13 13 15 10 11 11 8 9 11 9 8 7 8 7 8 6 4 3 7 6 7 6 7 6
10 8 11 9 11 10 8 10 12 15 14 12 10 10 11 11 11 11 12 13 13 13 12 12 12 11 11 10 8 9 9 10 9 9 8 6 4 5 7 7 7 9 7
11 10 11 10 12 5 7 7 11 11 13 15 11 9 10 10 10 8 6 9 11 11 11 11 12 8 11 10 9 10 12 11 9 11 8 7 8 11 7 8 6 9 7
12 12 13 13 13 13 13 12 8 6 10 14 11 13 12 10 9 8 9 6 4 8 10 11 10 9 9 12 11 10 12 12 10 9 11 11 4 7 8 8 4 6 8
12 13 14 13 12 13 12 12 11 13 14 13 10 9 10 1 4 3 8 10 10 11 12 11 10 10 9 11 9 11 13 11 12 8 11 12 7 10 9 11 9 7 8
13 11 12 13 13 13 14 14 13 12 12 10 13 14 9 3 3 3 7 4 4 6 11 10 5 4 4 3 5 5 10 11 10 11 9 11 11 11 9 7 12 11 10
12 10 11 11 11 12 11 10 11 12 12 10 9 8 8 11 11 10 9 8 4 1 2 5 7 6 6 4 4 3 5 7 9 10 9 10 11 10 10 5 11 12 9
10 11 7 7 9 11 12 10 10 10 10 11 10 8 7 4 4 4 4 1 3 3 6 7 8 8 8 6 4 3 4 5 5 7 7 8 6 5 5 7 10 11 10
7 9 5 5 5 6 8 8 9 9 10 9 8 8 7 7 5 5 4 4 5 4 5 5 6 9 8 8 7 5 5 4 4 4 4 5 5 4 1 1 5 11 10
6 11 6 4 3 2 3 5 5 6 6 7 8 7 6 5 5 3 2 3 4 6 5 5 5 4 9 7 8 6 7 8 7 6 4 5 4 4 3 3 2 2 6
4 5 7 7 3 2 3 4 4 4 5 5 6 5 6 6 6 4 3 5 6 4 6 5 7 7 8 8 8 8 8 13 7 8 8 9 7 5 2 2 4 4 2
1 4 5 4 4 3 2 3 2 3 4 4 5 7 8 8 6 7 7 6 5 6 7 6 7 7 7 7 8 10 9 11 11 8 9 8 8 9 6 5 5 6 2
2 3 4 2 3 1 2 1 1 2 3 4 5 5 6 6 7 6 6 6 7 6 7 7 8 7 7 7 7 8 9 11 10 9 9 11 11 9 8 8 5 6 5
7 6 4 3 4 1 2 1 0 2 1 5 5 6 6 6 5 5 5 5 5 6 7 7 7 7 8 7 7 7 9 9 9 8 8 8 9 6 9 8 7 5 2
7 7 6 4 6 5 4 4 3 2 4 5 6 6 6 7 6 5 5 6 6 6 6 7 6 6 6 5 7 7 7 7 8 8 9 7 12 16 10 5 4 4 2
8 6 5 4 6 7 6 4 4 4 5 6 6 5 7 5 2 6 5 6 8 10 10 10 9 9 7 12 12 9 6 8 7 8 9 7 9 5 4 6 5 2 5
7 6 6 7 7 9 5 6 6 5 6 5 4 4 1 2 1 2 5 7 8 9 11 11 11 10 9 14 11 11 8 9 8 9 9 9 8 8 7 5 3 2 1
7 6 6 6 6 6 6 5 6 7 6 5 4 5 5 5 5 3 1 3 4 5 8 8 9 9 10 12 11 12 8 7 6 6 5 7 9 9 8 7 6 5 6
5 4 3 4 5 10 6 7 8 7 6 6 6 7 7 7 9 7 4 2 3 4 3 5 4 9 12 8 6 5 7 5 7 9 7 6 7 8 5 5 8 8 7
5 6 6 5 5 6 8 8 8 6 6 6 7 7 10 8 6 7 6 3 3 1 2 1 2 1 7 9 7 5 4 6 4 2 3 6 8 7 10 7 7 7 8
7 7 6 6 9 8 9 10 10 9 8 8 8 6 3 2 9 9 6 8 8 9 9 10 9 9 8 11 11 9 7 5 5 7 9 9 15 11 10 10 8 8 6
9 8 8 9 10 9 10 10 9 9 9 11 7 5 3 6 5 9 12 14 11 9 9 9 8 8 8 9 9 11 11 10 8 7 7 5 13 15 13 9 11 4 6
10 10 9 10 9 8 8 9 10 10 12 9 10 9 9 9 11 9 7 6 8 7 7 7 7 6 8 8 13 15 14 15 12 9 3 2 6 6 7 10 7 6 8
11 11 11 10 11 9 10 10 10 10 11 13 10 10 11 11 11 8 6 7 6 6 7 6 6 6 6 7 7 10 10 14 10 14 11 9 6 8 6 7 11 10 10
12 12 11 11 12 14 12 11 13 13 11 11 11 10 9 12 11 10 9 10 12 10 7 8 8 9 9 11 12 11 11 11 14 11 10 8 8 9 9 10 10 9 9
13 12 12 12 13 14 15 14 14 12 12 10 10 10 10 10 11 9 9 9 9 5 9 9 5 2 3 7 12 10 8 4 4 10 8 8 9 9 9 9 10 11 11
Wind_Direction
88 23 351 333 327 288 201 203 205 209 217 196 199 212 216 222 212 223 215 214 200 211 220 223 222 204 222 238 202 219 221 225 204 112 129 117 205 136 154 156 156 168 142
62 42 38 359 323 302 308 197 211 211 210 210 209 215 223 215 224 212 217 212 215 213 212 219 241 196 223 232 229 215 209 225 211 182 172 173 194 213 190 172 176 187 167
55 41 44 37 8 336 343 288 204 218 215 230 212 218 224 228 212 221 227 199 211 220 229 214 232 213 206 228 212 212 224 207 207 207 210 210 219 164 186 183 198 169 170
56 39 44 33 20 9 6 9 347 266 226 229 245 236 217 212 212 212 211 225 231 248 239 236 228 243 216 241 196 217 222 238 212 193 244 258 77 189 171 196 144 193 163
59 33 42 46 25 15 16 24 25 29 12 333 266 250 235 311 351 347 240 204 199 198 231 243 243 237 234 238 249 212 218 224 242 197 204 235 223 225 183 173 175 200 186
81 44 45 57 49 39 34 25 35 31 24 18 9 347 293 351 267 256 283 242 212 203 202 211 223 52 10 307 316 283 240 238 244 254 206 223 212 216 215 179 167 188 182
78 61 40 37 54 57 50 42 34 23 12 15 17 4 353 338 262 241 234 227 216 202 160 133 117 109 83 48 20 352 257 255 254 259 266 226 216 231 214 182 172 175 176
69 78 57 46 34 26 23 31 41 38 25 15 7 6 2 333 322 348 8 29 74 108 144 129 130 128 127 109 84 35 348 332 286 271 268 295 224 243 246 228 173 162 167
69 97 110 88 59 37 26 18 16 19 19 23 17 14 7 3 353 28 29 49 56 83 74 77 98 116 114 100 90 82 51 16 339 324 281 293 285 246 352 279 177 164 163
87 115 125 120 115 78 20 15 20 23 26 24 18 18 15 19 37 29 49 102 106 106 110 101 101 135 97 104 92 75 75 74 43 8 20 306 290 254 271 296 342 128 173
64 75 102 103 109 38 13 26 8 28 21 24 25 14 29 36 50 58 89 84 89 97 101 121 129 116 120 102 94 93 82 82 57 77 45 17 2 315 46 66 146 129 262
341 108 114 112 60 16 59 76 48 51 42 48 50 46 41 41 60 58 70 79 85 93 96 92 83 82 84 100 110 116 107 94 74 58 73 59 44 9 355 75 84 84 8
264 279 238 158 74 27 126 130 87 65 91 74 94 90 82 75 65 74 68 85 83 90 109 117 91 92 83 83 88 96 100 85 81 70 49 53 54 42 21 23 38 64 101
206 236 267 240 94 227 134 261 68 68 154 139 124 118 113 106 96 88 94 90 99 103 88 89 97 83 90 94 99 91 83 85 82 78 77 66 64 45 29 356 3 27 73
229 233 242 245 138 203 198 197 199 126 25 25 121 132 141 143 137 132 131 135 131 128 122 119 115 115 108 101 99 98 103 115 135 152 143 167 164 177 178 174 179 190 151
245 240 233 237 181 221 204 198 200 160 111 81 54 45 43 25 169 161 170 164 177 171 163 154 152 158 157 150 149 140 152 154 169 165 167 166 164 157 115 136 123 6 171
243 240 243 207 198 183 205 216 174 166 137 121 113 104 131 112 92 192 217 226 212 186 176 171 168 168 152 167 187 189 169 169 188 169 174 164 176 179 182 190 207 208 41
228 230 237 220 152 157 184 190 177 174 168 164 185 182 189 173 174 175 110 33 300 206 173 177 173 158 153 171 179 185 179 178 166 148 161 199 160 200 187 185 199 224 227
225 242 240 171 177 173 175 193 179 175 188 195 212 223 188 194 182 183 191 92 8 8 100 104 144 161 141 156 158 175 156 166 186 202 205 209 185 186 200 223 207 215 229
200 209 196 147 171 174 173 183 172 186 207 215 226 236 168 195 166 182 183 138 243 154 57 42 200 182 158 140 143 196 233 195 213 203 251 250 253 185 193 213 238 241 245
200 200 181 176 177 189 178 192 186 197 194 213 220 242 118 243 159 174 181 191 207 192 190 189 204 189 190 164 177 196 245 243 207 230 212 214 210 202 206 208 234 250 303
195 201 194 204 160 182 201 195 190 200 192 187 193 157 167 190 224 197 186 193 199 190 192 197 194 199 207 224 195 199 215 232 253 268 259 244 197 200 201 201 235 267 292
197 190 212 200 178 185 208 207 199 171 173 194 191 186 178 218 191 220 229 223 206 226 209 203 203 208 200 214 208 206 211 231 248 263 320 298 141 152 190 218 221 211 241
207 198 205 210 175 182 207 213 185 192 197 190 194 189 189 207 211 208 214 223 211 226 225 216 205 212 226 219 212 215 218 233 240 246 242 220 191 224 251 207 212 229 242
203 203 205 203 198 176 205 193 198 209 203 198 192 206 217 210 222 225 218 213 203 194 209 216 210 206 212 211 197 203 211 212 208 226 230 203 225 224 220 226 235 216 223
197 201 206 205 206 188 193 191 197 207 222 219 226 206 199 210 206 207 209 197 139 172 182 173 208 140 181 217 182 145 134 107 134 207 249 238 234 230 230 226 222 218 224